Wind_Speed
54 58 62 65 68 72 77 79 80 79 69 62 59 55 52 52 53 49 49 49 41 35 32 28 24 24 20 18 18 19 17 22 21 20 19 20 23 29 39 45 48 51 53 56 60 60 61
48 52 57 59 62 64 67 71 73 74 74 72 67 62 58 56 55 54 54 50 45 42 40 37 33 31 31 27 22 20 21 21 22 24 28 31 28 23 30 36 42 52 56 52 54 58 65
42 46 50 53 56 58 59 61 63 66 67 67 66 65 63 63 63 62 59 54 49 47 45 42 38 35 30 26 21 19 19 20 25 30 34 38 39 39 37 42 44 40 43 52 53 56 58
35 39 42 46 49 52 53 54 55 55 57 58 59 59 58 58 57 56 53 50 48 45 41 39 35 31 26 21 19 18 20 25 28 32 38 45 44 41 39 41 43 41 41 41 46 53 56
34 33 35 38 42 45 47 48 49 49 49 49 49 49 49 49 49 47 45 43 41 39 37 32 28 24 21 18 18 18 19 23 27 33 40 42 42 38 33 31 33 37 41 44 45 49 54
33 34 32 33 34 37 39 42 43 43 43 43 43 43 42 41 40 38 37 36 34 31 28 25 23 21 18 17 17 18 20 24 29 30 32 37 41 42 37 33 28 25 29 35 41 43 52
29 31 32 32 32 30 32 34 35 37 38 37 37 37 36 35 34 32 31 29 27 25 23 22 20 18 16 16 17 18 20 21 22 23 26 32 37 41 41 40 38 36 29 25 21 23 43
31 29 29 31 31 31 29 28 28 29 30 32 32 32 31 30 29 28 26 24 23 21 20 18 17 16 15 13 14 14 14 14 16 18 22 27 34 41 43 43 41 39 39 32 25 18 21
31 31 30 28 28 30 29 29 26 24 23 23 24 24 24 24 22 22 21 21 18 15 13 11 10 10 10 11 12 13 15 15 15 17 20 25 30 37 43 43 42 41 40 38 34 26 20
27 28 29 29 30 25 26 27 25 24 23 21 19 18 17 16 15 14 13 12 11 10 8 7 7 8 9 10 11 12 14 15 16 17 20 23 27 32 37 42 43 41 36 35 34 32 29
20 24 26 28 30 27 25 23 24 22 21 19 18 17 16 14 13 12 12 11 9 8 8 7 9 10 11 11 12 12 13 15 17 17 19 21 24 28 31 34 38 39 37 33 30 30 27
16 18 21 25 26 26 24 25 25 19 20 17 15 14 14 14 13 12 12 12 12 12 12 13 13 14 15 15 15 15 15 15 17 18 19 20 21 23 26 28 32 34 35 34 33 29 24
15 16 18 19 20 20 24 23 22 21 17 15 15 13 11 11 13 12 12 12 12 13 12 15 15 15 15 17 16 17 18 18 17 16 19 19 20 21 23 24 26 28 31 32 33 32 29
15 15 16 17 18 18 21 20 23 20 20 16 14 13 14 12 11 12 11 12 11 11 13 14 16 18 17 17 19 19 19 20 20 19 17 18 19 20 22 23 24 24 26 29 31 31 31
18 19 17 17 17 19 19 19 22 22 21 19 17 12 14 13 14 13 14 13 13 12 13 14 14 15 18 19 18 19 19 21 21 21 23 23 21 22 22 23 24 24 24 26 27 29 32
25 23 23 22 20 20 21 21 22 20 22 23 22 19 15 13 14 17 15 15 17 16 15 15 14 15 17 18 19 19 20 20 21 22 23 24 23 24 24 24 24 24 25 26 25 28 31
28 30 29 28 28 26 24 23 23 24 23 22 22 20 19 19 18 17 16 18 17 17 17 18 17 14 13 15 17 19 19 19 21 23 24 24 25 27 25 26 26 25 24 25 25 25 26
34 33 33 32 31 32 31 28 28 27 27 26 24 22 20 20 21 19 20 18 20 19 17 18 18 18 17 15 14 16 17 17 18 19 22 23 23 25 25 24 24 25 26 24 24 24 23
39 37 36 35 34 35 36 35 33 33 31 27 28 26 25 23 25 23 23 28 26 20 21 20 20 19 20 21 20 18 17 17 17 17 16 18 23 22 24 23 22 23 24 24 23 20 19
43 40 37 36 35 37 39 42 40 36 36 35 33 29 28 27 28 30 28 29 30 28 24 25 25 26 23 24 24 20 20 18 19 19 20 13 18 22 23 26 26 25 25 24 22 23 18
47 46 46 44 41 40 42 43 45 42 41 39 39 37 34 31 34 33 32 33 31 29 28 30 29 30 30 28 28 24 24 23 21 21 21 18 13 14 22 20 24 25 23 25 24 23 23
52 50 49 49 48 49 48 45 45 46 46 46 45 43 40 36 34 37 36 37 37 37 36 32 33 34 32 33 36 30 30 30 26 24 25 21 22 15 15 17 18 21 25 25 24 26 23
55 55 54 53 53 52 51 50 48 49 49 49 49 50 49 44 39 38 40 41 41 42 39 38 41 39 40 39 38 35 35 35 36 32 29 27 27 29 17 21 16 22 22 25 26 27 25
58 58 58 58 57 57 56 55 55 55 56 55 54 55 53 51 49 42 43 46 45 46 46 47 46 43 43 43 45 43 40 38 38 38 35 35 35 36 36 30 28 23 23 28 28 29 28
64 64 64 64 63 62 63 62 62 62 61 61 61 60 59 57 55 49 44 47 49 49 50 52 51 53 50 49 49 48 44 43 41 41 40 39 39 41 41 44 45 24 28 28 33 29 31
70 70 69 69 68 68 68 68 68 68 68 67 64 64 63 61 59 56 53 47 46 48 52 53 54 56 58 57 56 56 54 52 51 50 47 44 42 42 43 46 49 31 33 34 35 35 39
71 72 74 74 73 72 70 70 70 69 70 69 66 63 64 63 60 60 59 59 56 53 49 50 51 56 58 59 62 62 59 58 58 58 57 55 52 51 49 53 54 34 38 40 38 44 45
70 71 73 73 74 74 73 70 68 69 69 69 69 70 68 68 67 64 61 59 58 57 56 55 55 56 59 62 62 62 64 63 64 63 63 62 60 56 57 61 59 50 46 46 49 49 48
72 71 67 67 68 69 70 71 71 69 66 68 72 75 76 74 72 70 66 64 64 67 66 66 66 65 65 65 67 69 68 67 68 71 69 68 62 63 67 66 62 57 54 56 54 54 53
Wind_Direction
33 34 33 35 40 43 45 49 50 52 59 66 72 86 93 102 109 111 110 107 110 114 116 119 125 117 112 110 103 94 78 57 40 20 358 337 313 287 270 266 265 261 261 259 256 254 252
35 34 36 35 37 42 47 49 52 54 56 61 66 75 83 91 95 96 95 99 104 105 106 106 104 106 104 102 97 76 61 48 35 24 10 1 341 307 290 285 279 272 266 264 260 258 253
37 36 36 37 37 38 42 49 53 56 59 61 63 67 72 77 80 84 89 93 98 100 100 104 103 100 96 95 84 71 56 42 31 23 12 5 353 338 319 304 301 292 275 265 260 258 258
35 38 37 38 39 40 41 42 48 53 58 61 65 67 70 74 79 84 88 92 96 99 98 95 92 91 86 84 74 60 47 37 28 19 16 13 3 345 325 311 303 297 287 271 265 263 259
38 34 37 37 38 40 42 44 45 47 52 58 62 66 69 72 75 79 84 86 87 87 88 89 90 90 84 73 61 47 38 32 25 22 17 15 10 1 349 329 313 302 289 281 268 263 260
44 39 35 37 37 37 41 43 45 48 50 53 56 59 63 67 71 73 76 79 82 82 83 82 78 72 65 54 45 33 27 24 21 18 14 15 15 16 14 5 353 331 308 291 277 258 258
44 45 39 37 36 37 36 38 42 44 46 50 54 57 58 59 61 64 64 66 68 68 68 64 60 55 47 39 31 24 19 18 14 9 10 12 15 17 21 25 20 13 359 346 313 275 257
39 42 44 42 38 35 34 35 34 37 41 44 46 49 52 56 57 56 57 58 57 56 56 53 50 46 36 29 21 13 8 5 3 5 5 9 15 20 22 24 25 24 22 17 5 346 309
36 41 41 42 44 40 33 31 32 31 32 36 40 43 46 48 51 55 55 53 53 53 51 54 49 41 24 16 11 6 2 354 354 357 1 7 14 21 23 24 25 26 27 27 29 23 19
31 29 35 45 43 42 41 33 29 29 30 27 27 33 37 41 42 46 46 48 42 38 38 45 24 14 360 352 356 351 354 354 353 350 357 4 12 18 26 28 27 28 29 32 33 38 37
19 25 24 24 31 38 42 36 32 29 28 29 28 27 25 31 33 25 20 18 19 16 7 5 350 346 339 340 341 342 343 349 351 354 354 358 7 16 22 27 30 29 30 30 31 33 38
5 7 13 20 17 14 31 42 33 27 30 23 22 24 25 22 20 20 19 16 12 3 0 358 351 344 344 341 339 338 342 344 342 347 355 355 1 8 16 23 27 29 30 30 33 33 33
343 350 358 2 7 17 14 16 32 34 28 23 18 12 9 12 4 6 8 10 12 6 1 356 355 356 355 349 349 344 341 342 341 342 343 351 354 360 7 14 20 25 26 28 30 29 31
318 327 339 346 358 358 360 3 1 19 29 22 14 3 1 349 343 344 348 351 350 354 351 349 349 349 352 352 350 350 346 345 346 345 343 341 349 356 358 4 9 15 19 19 20 20 13
305 311 317 330 340 346 350 353 354 358 5 17 11 356 351 345 345 335 330 332 332 333 329 330 332 337 337 339 345 348 351 349 351 354 353 353 350 349 353 356 358 2 9 15 19 20 19
297 300 305 311 317 324 329 337 342 343 346 350 356 355 346 340 339 337 328 328 326 319 322 325 326 325 326 330 334 338 343 343 345 346 352 355 356 353 349 350 353 355 358 2 8 13 21
288 292 295 301 306 313 318 324 331 332 331 332 336 345 348 339 334 331 328 326 326 324 317 315 316 319 322 323 323 327 332 340 340 341 342 345 348 352 356 351 348 351 354 357 2 3 13
282 284 289 294 297 303 310 317 319 323 325 325 322 323 333 329 336 339 330 323 322 315 310 311 308 310 310 312 314 317 321 327 332 336 336 338 340 345 346 352 351 352 354 352 357 1 6
276 279 284 287 288 293 301 306 310 313 316 318 317 314 315 318 319 317 324 329 320 317 305 299 302 303 304 302 309 304 309 314 320 324 333 332 335 340 336 341 348 347 351 353 350 355 353
278 280 279 279 278 281 293 298 303 305 307 310 311 308 306 306 306 307 312 314 316 312 309 303 298 298 301 296 299 302 300 302 303 313 320 324 322 330 332 330 336 338 338 341 346 349 349
277 279 281 282 279 278 284 290 295 299 302 303 304 304 304 301 300 300 301 302 301 307 307 304 299 298 296 292 291 293 292 294 296 296 300 303 299 312 317 321 327 329 327 327 331 335 336
276 277 279 281 283 285 289 290 292 295 297 298 300 298 297 298 298 294 298 299 296 296 298 298 291 296 293 292 296 293 294 293 291 289 290 294 295 295 300 307 317 319 313 312 315 319 330
274 276 278 280 283 285 288 290 291 293 294 293 294 295 295 293 291 291 289 292 295 294 290 293 296 294 293 291 289 290 292 293 294 295 288 292 295 299 294 295 288 308 306 306 309 305 311
275 276 277 279 281 284 285 286 288 290 292 292 292 290 290 288 291 292 292 288 289 291 291 290 291 293 289 288 287 288 289 289 290 291 289 293 296 299 304 306 303 304 296 299 298 295 297
276 278 279 280 281 282 283 284 286 288 288 290 290 289 288 286 286 288 286 289 288 288 287 289 291 289 290 287 284 284 289 288 287 288 289 289 291 294 298 301 303 301 297 288 289 292 286
274 276 277 278 280 283 284 286 287 288 289 288 288 290 289 286 286 287 285 285 284 286 283 284 287 288 288 288 289 287 289 292 289 288 290 291 290 292 296 296 297 305 293 292 290 288 288
274 276 276 277 279 280 281 282 284 286 287 288 289 290 291 291 289 288 289 289 288 287 285 283 279 280 281 283 284 285 285 285 284 285 288 287 288 288 292 291 290 296 290 290 286 282 282
273 276 275 276 278 279 280 283 286 287 287 287 288 288 288 288 290 292 293 289 290 294 290 285 284 281 278 276 279 281 281 280 280 280 282 284 284 285 283 284 289 288 288 284 281 282 284
276 275 277 278 281 281 281 282 283 284 288 291 289 288 289 289 287 288 287 289 287 284 284 282 285 286 282 279 276 276 277 275 277 277 278 280 278 283 282 283 284 287 281 280 282 281 279
Height
5803 5793 5783 5774 5764 5754 5743 5731 5721 5710 5704 5698 5696 5694 5695 5699 5705 5707 5711 5713 5726 5736 5742 5750 5756 5761 5766 5772 5776 5779 5781 5779 5777 5774 5772 5767 5762 5756 5751 5745 5739 5735 5734 5733 5731 5730 5729
5811 5803 5794 5785 5777 5770 5760 5751 5743 5735 5729 5723 5718 5717 5716 5716 5717 5718 5721 5729 5739 5745 5752 5758 5762 5768 5772 5776 5778 5779 5777 5776 5775 5772 5767 5760 5753 5746 5740 5734 5729 5724 5720 5716 5715 5713 5710
5819 5812 5805 5798 5790 5782 5775 5768 5762 5755 5750 5746 5742 5739 5736 5733 5732 5733 5737 5744 5750 5754 5760 5764 5768 5770 5774 5777 5778 5777 5777 5775 5770 5765 5761 5749 5738 5730 5726 5721 5715 5709 5705 5700 5698 5695 5695
5826 5820 5814 5808 5802 5795 5787 5781 5776 5771 5767 5763 5760 5758 5757 5754 5753 5753 5757 5760 5763 5767 5769 5770 5771 5773 5776 5779 5778 5778 5775 5770 5766 5762 5753 5742 5734 5727 5719 5709 5701 5695 5689 5687 5683 5678 5678
5830 5826 5822 5817 5811 5805 5800 5794 5789 5784 5781 5778 5775 5773 5771 5771 5771 5770 5771 5771 5772 5771 5772 5775 5779 5781 5782 5781 5779 5777 5774 5770 5765 5757 5749 5746 5741 5731 5716 5702 5691 5682 5674 5669 5667 5663 5658
5835 5832 5827 5823 5819 5814 5809 5805 5801 5796 5792 5788 5786 5784 5783 5782 5781 5781 5781 5780 5780 5781 5782 5783 5783 5784 5781 5780 5778 5776 5772 5765 5760 5758 5756 5751 5743 5730 5714 5699 5687 5675 5664 5654 5646 5650 5638
5839 5836 5833 5828 5824 5821 5817 5813 5809 5805 5802 5798 5795 5793 5791 5790 5788 5787 5786 5786 5787 5786 5784 5784 5784 5783 5781 5780 5777 5774 5769 5766 5765 5762 5757 5750 5743 5730 5713 5697 5683 5670 5658 5646 5636 5632 5625
5843 5839 5836 5833 5829 5826 5822 5819 5815 5812 5809 5806 5803 5800 5798 5796 5795 5793 5793 5792 5790 5790 5788 5786 5785 5783 5782 5780 5778 5775 5772 5770 5766 5761 5756 5750 5740 5727 5712 5698 5685 5673 5660 5647 5636 5631 5627
5846 5843 5839 5836 5833 5830 5827 5824 5820 5817 5814 5811 5809 5807 5805 5803 5801 5799 5797 5795 5793 5792 5791 5790 5788 5786 5784 5781 5778 5775 5772 5768 5764 5759 5753 5746 5738 5726 5713 5700 5687 5674 5664 5654 5643 5635 5629
5850 5846 5843 5839 5836 5833 5830 5828 5825 5821 5819 5816 5813 5811 5808 5806 5806 5802 5800 5799 5797 5795 5794 5792 5789 5786 5784 5780 5777 5773 5770 5767 5761 5757 5751 5745 5736 5727 5715 5704 5691 5680 5671 5662 5653 5645 5638
5853 5850 5846 5842 5839 5836 5832 5830 5828 5825 5822 5819 5816 5813 5811 5808 5806 5804 5802 5799 5797 5796 5794 5793 5788 5785 5782 5779 5776 5772 5768 5763 5759 5754 5750 5743 5735 5727 5718 5708 5698 5689 5678 5669 5661 5655 5649
5854 5851 5848 5845 5842 5838 5835 5831 5829 5827 5824 5822 5818 5816 5813 5811 5808 5805 5803 5800 5798 5797 5793 5791 5788 5785 5782 5778 5775 5771 5767 5762 5757 5751 5746 5740 5734 5727 5719 5711 5702 5694 5686 5677 5669 5664 5659
5853 5851 5848 5846 5843 5840 5837 5833 5830 5826 5825 5822 5820 5817 5815 5812 5810 5807 5804 5802 5800 5796 5795 5792 5787 5784 5781 5778 5774 5769 5765 5761 5756 5751 5745 5739 5733 5726 5720 5712 5705 5698 5691 5685 5678 5671 5666
5851 5849 5847 5845 5843 5841 5838 5835 5831 5827 5824 5821 5819 5817 5815 5813 5810 5807 5805 5803 5799 5795 5792 5790 5787 5784 5780 5776 5773 5768 5764 5759 5755 5750 5745 5739 5734 5726 5719 5714 5708 5700 5694 5687 5681 5675 5670
5847 5846 5845 5843 5842 5839 5837 5834 5831 5827 5824 5821 5817 5816 5813 5811 5808 5806 5805 5802 5798 5795 5792 5789 5785 5782 5779 5775 5771 5766 5762 5758 5753 5748 5743 5737 5733 5727 5721 5715 5710 5704 5697 5691 5686 5681 5675
5841 5841 5840 5839 5838 5836 5834 5831 5829 5826 5823 5819 5815 5812 5810 5808 5806 5804 5802 5799 5796 5794 5790 5787 5784 5780 5776 5773 5770 5765 5761 5757 5752 5747 5742 5737 5732 5726 5722 5717 5712 5706 5701 5695 5689 5682 5678
5835 5834 5833 5832 5831 5830 5829 5827 5825 5823 5820 5817 5813 5809 5807 5804 5802 5800 5797 5795 5792 5790 5788 5785 5781 5778 5774 5770 5766 5763 5761 5756 5751 5747 5742 5737 5731 5726 5721 5716 5712 5707 5701 5696 5692 5687 5681
5829 5829 5827 5826 5825 5824 5823 5822 5820 5818 5816 5813 5810 5807 5803 5800 5799 5795 5793 5790 5788 5785 5782 5780 5777 5774 5771 5767 5763 5759 5755 5752 5748 5743 5739 5735 5730 5725 5721 5716 5711 5706 5702 5698 5693 5690 5685
5821 5821 5821 5820 5818 5817 5815 5814 5813 5811 5809 5808 5805 5802 5799 5796 5793 5790 5787 5785 5782 5779 5777 5774 5771 5768 5765 5762 5759 5755 5751 5747 5744 5740 5737 5732 5727 5722 5718 5716 5710 5705 5701 5697 5694 5690 5687
5811 5811 5811 5812 5811 5810 5808 5805 5805 5804 5802 5800 5798 5796 5794 5790 5787 5785 5782 5778 5775 5773 5770 5766 5764 5762 5759 5755 5751 5749 5745 5742 5738 5734 5731 5729 5726 5720 5716 5711 5707 5702 5698 5695 5692 5689 5686
5800 5800 5800 5799 5800 5800 5800 5798 5796 5794 5793 5792 5790 5788 5785 5784 5780 5777 5774 5771 5767 5765 5764 5760 5758 5754 5752 5749 5744 5742 5738 5734 5731 5728 5725 5722 5721 5718 5713 5709 5705 5701 5697 5692 5689 5686 5684
5788 5789 5789 5788 5788 5788 5787 5786 5786 5784 5783 5781 5779 5777 5778 5776 5772 5769 5765 5763 5760 5756 5754 5752 5748 5745 5743 5741 5737 5735 5732 5728 5726 5723 5719 5717 5714 5712 5710 5705 5702 5698 5693 5689 5686 5681 5680
5775 5776 5776 5775 5775 5775 5775 5774 5774 5772 5772 5770 5768 5765 5762 5764 5764 5761 5758 5753 5750 5746 5745 5740 5736 5734 5734 5730 5727 5725 5723 5721 5716 5715 5711 5709 5705 5702 5704 5699 5698 5694 5688 5684 5682 5676 5674
5761 5762 5762 5762 5762 5761 5760 5760 5760 5759 5757 5756 5756 5752 5749 5748 5749 5750 5746 5742 5740 5736 5732 5731 5728 5725 5722 5718 5716 5715 5713 5710 5708 5705 5702 5699 5696 5693 5692 5691 5689 5688 5683 5678 5675 5670 5668
5747 5747 5747 5748 5748 5748 5746 5745 5745 5744 5743 5742 5740 5739 5736 5732 5732 5736 5735 5730 5727 5724 5721 5718 5719 5714 5709 5705 5702 5701 5702 5700 5698 5694 5692 5689 5686 5683 5681 5679 5677 5681 5675 5671 5667 5665 5659
5731 5731 5731 5731 5732 5732 5731 5730 5729 5728 5726 5725 5725 5724 5722 5719 5718 5717 5717 5719 5716 5713 5710 5708 5704 5700 5696 5692 5690 5686 5685 5684 5683 5681 5681 5679 5675 5674 5672 5667 5663 5671 5664 5661 5656 5655 5650
5714 5714 5714 5714 5714 5714 5714 5714 5714 5713 5711 5709 5708 5709 5706 5703 5703 5702 5699 5699 5698 5699 5697 5693 5692 5686 5683 5680 5675 5674 5673 5671 5668 5666 5665 5662 5660 5659 5658 5652 5652 5660 5652 5649 5647 5643 5637
5695 5696 5697 5697 5697 5696 5696 5696 5696 5696 5695 5693 5693 5690 5691 5689 5688 5687 5686 5682 5680 5680 5677 5674 5673 5671 5669 5664 5663 5660 5656 5654 5652 5652 5648 5646 5644 5646 5642 5637 5640 5641 5640 5636 5629 5627 5624
5675 5677 5678 5679 5679 5679 5678 5678 5677 5677 5675 5675 5675 5672 5669 5670 5673 5671 5669 5668 5666 5662 5660 5657 5654 5651 5647 5644 5643 5639 5639 5638 5636 5633 5631 5628 5627 5629 5627 5624 5624 5624 5619 5615 5614 5611 5608